Time,TemperatureF,DewpointF,PressureIn,WindDirection,WindDirectionDegrees,WindSpeedMPH,WindSpeedGustMPH,Humidity,HourlyPrecipIn,Conditions,Clouds,dailyrainin,SoftwareType,DateUTC
2013-11-02 00:02:00,48.7,17.9,24.41,NNW,348,3.0,4.0,29,0.00,,---,0.00,VWS V14.01,2013-11-02 05:02:00,
2013-11-02 00:07:00,48.8,18.0,24.41,NNW,340,4.0,5.0,29,0.00,,---,0.00,VWS V14.01,2013-11-02 05:07:00,
2013-11-02 00:12:00,48.8,18.0,24.41,NNW,339,4.0,4.0,29,0.00,,---,0.00,VWS V14.01,2013-11-02 05:12:00,
2013-11-02 00:17:00,48.8,18.0,24.41,NNW,336,5.0,5.0,29,0.00,,---,0.00,VWS V14.01,2013-11-02 05:17:00,
2013-11-02 00:22:00,48.9,18.1,24.41,North,351,4.0,5.0,29,0.00,,---,0.00,VWS V14.01,2013-11-02 05:22:00,
2013-11-02 00:27:00,48.9,18.1,24.41,NNW,348,3.0,5.0,29,0.00,,---,0.00,VWS V14.01,2013-11-02 05:27:00,
2013-11-02 00:32:00,48.8,18.0,24.41,North,356,3.0,4.0,29,0.00,,---,0.00,VWS V14.01,2013-11-02 05:32:00,
2013-11-02 00:37:00,48.7,17.9,24.41,NNW,342,3.0,5.0,29,0.00,,---,0.00,VWS V14.01,2013-11-02 05:37:00,
2013-11-02 00:42:00,48.8,18.0,24.42,North,358,4.0,5.0,29,0.00,,---,0.00,VWS V14.01,2013-11-02 05:42:00,
2013-11-02 00:47:00,49.0,18.1,24.42,North,356,3.0,4.0,29,0.00,,---,0.00,VWS V14.01,2013-11-02 05:47:00,
2013-11-02 00:52:00,48.9,18.1,24.42,North,358,3.0,4.0,29,0.00,,---,0.00,VWS V14.01,2013-11-02 05:52:00,
2013-11-02 00:57:00,48.8,18.0,24.41,North,358,3.0,4.0,29,0.00,,---,0.00,VWS V14.01,2013-11-02 05:57:00,
2013-11-02 01:02:00,48.6,17.8,24.42,North,359,4.0,4.0,29,0.00,,---,0.00,VWS V14.01,2013-11-02 06:02:00,
2013-11-02 01:07:00,48.4,18.4,24.42,North,360,3.0,5.0,30,0.00,,---,0.00,VWS V14.01,2013-11-02 06:07:00,
2013-11-02 01:12:00,48.3,18.3,24.42,North,359,4.0,4.0,30,0.00,,---,0.00,VWS V14.01,2013-11-02 06:12:00,
2013-11-02 01:17:00,48.1,18.1,24.42,North,359,4.0,5.0,30,0.00,,---,0.00,VWS V14.01,2013-11-02 06:17:00,
2013-11-02 01:22:00,48.1,18.1,24.42,North,360,3.0,5.0,30,0.00,,---,0.00,VWS V14.01,2013-11-02 06:22:00,
2013-11-02 01:27:00,47.9,18.7,24.42,NNE,22,3.0,4.0,31,0.00,,---,0.00,VWS V14.01,2013-11-02 06:27:00,
2013-11-02 01:32:00,47.8,18.6,24.42,NNE,19,3.0,6.0,31,0.00,,---,0.00,VWS V14.01,2013-11-02 06:32:00,
2013-11-02 01:37:00,47.7,18.6,24.41,NNE,24,5.0,5.0,31,0.00,,---,0.00,VWS V14.01,2013-11-02 06:37:00,
2013-11-02 01:42:00,47.6,18.5,24.42,NNE,33,5.0,7.0,31,0.00,,---,0.00,VWS V14.01,2013-11-02 06:42:00,
2013-11-02 01:47:00,47.4,19.0,24.41,NNE,31,5.0,6.0,32,0.00,,---,0.00,VWS V14.01,2013-11-02 06:47:00,
2013-11-02 01:52:00,47.5,19.1,24.42,NE,38,5.0,7.0,32,0.00,,---,0.00,VWS V14.01,2013-11-02 06:52:00,
2013-11-02 01:57:00,47.4,19.8,24.42,NE,39,5.0,7.0,33,0.00,,---,0.00,VWS V14.01,2013-11-02 06:57:00,
2013-11-02 02:02:00,47.2,19.6,24.42,NNE,19,6.0,6.0,33,0.00,,---,0.00,VWS V14.01,2013-11-02 07:02:00,
2013-11-02 02:07:00,47.2,19.6,24.42,NNE,18,3.0,5.0,33,0.00,,---,0.00,VWS V14.01,2013-11-02 07:07:00,
2013-11-02 02:12:00,47.0,19.4,24.42,North,360,3.0,4.0,33,0.00,,---,0.00,VWS V14.01,2013-11-02 07:12:00,
2013-11-02 02:17:00,46.9,20.0,24.42,North,359,4.0,4.0,34,0.00,,---,0.00,VWS V14.01,2013-11-02 07:17:00,
2013-11-02 02:22:00,46.7,19.8,24.43,North,353,4.0,4.0,34,0.00,,---,0.00,VWS V14.01,2013-11-02 07:22:00,
2013-11-02 02:27:00,46.7,20.5,24.43,NNW,347,3.0,4.0,35,0.00,,---,0.00,VWS V14.01,2013-11-02 07:27:00,
2013-11-02 02:32:00,46.7,21.2,24.43,NNW,345,4.0,4.0,36,0.00,,---,0.00,VWS V14.01,2013-11-02 07:32:00,
2013-11-02 02:37:00,46.6,21.1,24.43,NNW,341,3.0,4.0,36,0.00,,---,0.00,VWS V14.01,2013-11-02 07:37:00,
2013-11-02 02:42:00,46.5,21.6,24.43,NNW,338,5.0,5.0,37,0.00,,---,0.00,VWS V14.01,2013-11-02 07:42:00,
2013-11-02 02:47:00,46.3,21.5,24.43,North,359,2.0,5.0,37,0.00,,---,0.00,VWS V14.01,2013-11-02 07:47:00,
2013-11-02 02:52:00,46.1,21.9,24.43,NNW,330,4.0,5.0,38,0.00,,---,0.00,VWS V14.01,2013-11-02 07:52:00,
2013-11-02 02:57:00,46.1,22.5,24.43,NNW,343,3.0,3.0,39,0.00,,---,0.00,VWS V14.01,2013-11-02 07:57:00,
2013-11-02 03:02:00,46.4,22.8,24.42,NNW,339,4.0,4.0,39,0.00,,---,0.00,VWS V14.01,2013-11-02 08:02:00,
2013-11-02 03:07:00,46.5,22.9,24.42,North,358,3.0,5.0,39,0.00,,---,0.00,VWS V14.01,2013-11-02 08:07:00,
2013-11-02 03:12:00,46.7,23.1,24.43,NNW,344,3.0,5.0,39,0.00,,---,0.00,VWS V14.01,2013-11-02 08:12:00,
2013-11-02 03:17:00,46.7,23.1,24.43,NNW,342,1.0,3.0,39,0.00,,---,0.00,VWS V14.01,2013-11-02 08:17:00,
2013-11-02 03:22:00,46.4,22.8,24.43,NNW,342,1.0,3.0,39,0.00,,---,0.00,VWS V14.01,2013-11-02 08:22:00,
2013-11-02 03:27:00,46.4,22.8,24.43,NNW,342,3.0,3.0,39,0.00,,---,0.00,VWS V14.01,2013-11-02 08:27:00,
2013-11-02 03:32:00,46.6,23.0,24.43,NNW,341,2.0,3.0,39,0.00,,---,0.00,VWS V14.01,2013-11-02 08:32:00,
2013-11-02 03:37:00,46.7,23.1,24.42,NNW,341,4.0,4.0,39,0.00,,---,0.00,VWS V14.01,2013-11-02 08:37:00,
2013-11-02 03:42:00,46.6,23.0,24.42,NNW,348,4.0,5.0,39,0.00,,---,0.00,VWS V14.01,2013-11-02 08:42:00,
2013-11-02 03:47:00,46.7,23.1,24.42,NW,325,4.0,5.0,39,0.00,,---,0.00,VWS V14.01,2013-11-02 08:47:00,
2013-11-02 03:52:00,46.5,22.9,24.42,WNW,299,4.0,4.0,39,0.00,,---,0.00,VWS V14.01,2013-11-02 08:52:00,
2013-11-02 03:57:00,46.1,23.1,24.42,NW,313,3.0,4.0,40,0.00,,---,0.00,VWS V14.01,2013-11-02 08:57:00,
2013-11-02 04:02:00,46.1,23.1,24.42,WNW,303,3.0,4.0,40,0.00,,---,0.00,VWS V14.01,2013-11-02 09:02:00,
2013-11-02 04:07:00,46.3,23.3,24.42,WNW,288,3.0,4.0,40,0.00,,---,0.00,VWS V14.01,2013-11-02 09:07:00,
2013-11-02 04:12:00,46.6,23.0,24.42,NNW,327,2.0,3.0,39,0.00,,---,0.00,VWS V14.01,2013-11-02 09:12:00,
2013-11-02 04:17:00,46.8,23.2,24.42,NNW,327,0.0,2.0,39,0.00,,---,0.00,VWS V14.01,2013-11-02 09:17:00,
2013-11-02 04:22:00,46.8,23.2,24.42,NNW,327,1.0,3.0,39,0.00,,---,0.00,VWS V14.01,2013-11-02 09:22:00,
2013-11-02 04:27:00,46.7,23.1,24.42,NNW,327,0.0,0.0,39,0.00,,---,0.00,VWS V14.01,2013-11-02 09:27:00,
2013-11-02 04:32:00,46.7,23.1,24.42,NNW,327,2.0,3.0,39,0.00,,---,0.00,VWS V14.01,2013-11-02 09:32:00,
2013-11-02 04:37:00,47.1,23.4,24.42,NNW,348,3.0,4.0,39,0.00,,---,0.00,VWS V14.01,2013-11-02 09:37:00,
2013-11-02 04:42:00,47.1,22.8,24.42,NNW,344,0.0,0.0,38,0.00,,---,0.00,VWS V14.01,2013-11-02 09:42:00,
2013-11-02 04:47:00,46.7,23.1,24.42,NNW,346,0.0,0.0,39,0.00,,---,0.00,VWS V14.01,2013-11-02 09:47:00,
2013-11-02 04:52:00,46.5,22.9,24.42,NNW,346,0.0,0.0,39,0.00,,---,0.00,VWS V14.01,2013-11-02 09:52:00,
2013-11-02 04:57:00,46.8,23.2,24.42,NNW,346,0.0,0.0,39,0.00,,---,0.00,VWS V14.01,2013-11-02 09:57:00,
2013-11-02 05:02:00,46.9,22.6,24.42,NNW,346,0.0,0.0,38,0.00,,---,0.00,VWS V14.01,2013-11-02 10:02:00,
2013-11-02 05:07:00,47.0,23.3,24.42,NNW,346,0.0,2.0,39,0.00,,---,0.00,VWS V14.01,2013-11-02 10:07:00,
2013-11-02 05:12:00,46.7,23.1,24.42,NNW,343,2.0,2.0,39,0.00,,---,0.00,VWS V14.01,2013-11-02 10:12:00,
2013-11-02 05:17:00,46.8,23.2,24.42,NNW,337,2.0,3.0,39,0.00,,---,0.00,VWS V14.01,2013-11-02 10:17:00,
2013-11-02 05:22:00,46.8,22.5,24.42,SW,221,3.0,5.0,38,0.00,,---,0.00,VWS V14.01,2013-11-02 10:22:00,
2013-11-02 05:27:00,46.9,22.6,24.42,SW,221,3.0,4.0,38,0.00,,---,0.00,VWS V14.01,2013-11-02 10:27:00,
2013-11-02 05:32:00,47.0,22.1,24.42,SW,221,2.0,3.0,37,0.00,,---,0.00,VWS V14.01,2013-11-02 10:32:00,
2013-11-02 05:37:00,47.1,22.2,24.42,SW,221,2.0,3.0,37,0.00,,---,0.00,VWS V14.01,2013-11-02 10:37:00,
2013-11-02 05:42:00,47.3,22.4,24.43,SW,221,2.0,3.0,37,0.00,,---,0.00,VWS V14.01,2013-11-02 10:42:00,
2013-11-02 05:47:00,47.3,22.4,24.43,SSW,206,5.0,5.0,37,0.00,,---,0.00,VWS V14.01,2013-11-02 10:47:00,
2013-11-02 05:52:00,47.0,22.1,24.43,SSW,206,4.0,4.0,37,0.00,,---,0.00,VWS V14.01,2013-11-02 10:52:00,
2013-11-02 05:57:00,47.0,22.1,24.43,SSW,206,2.0,4.0,37,0.00,,---,0.00,VWS V14.01,2013-11-02 10:57:00,
2013-11-02 06:02:00,47.0,22.1,24.43,SSW,206,2.0,3.0,37,0.00,,---,0.00,VWS V14.01,2013-11-02 11:02:00,
2013-11-02 06:07:00,47.0,22.7,24.43,SSW,206,3.0,4.0,38,0.00,,---,0.00,VWS V14.01,2013-11-02 11:07:00,
2013-11-02 06:12:00,46.9,22.6,24.43,SSW,202,3.0,3.0,38,0.00,,---,0.00,VWS V14.01,2013-11-02 11:12:00,
2013-11-02 06:17:00,46.7,22.5,24.43,South,183,4.0,4.0,38,0.00,,---,0.00,VWS V14.01,2013-11-02 11:17:00,
2013-11-02 06:22:00,46.6,22.4,24.44,SSE,165,2.0,5.0,38,0.00,,---,0.00,VWS V14.01,2013-11-02 11:22:00,
2013-11-02 06:27:00,46.5,22.9,24.43,SSE,166,4.0,5.0,39,0.00,,---,0.00,VWS V14.01,2013-11-02 11:27:00,
2013-11-02 06:32:00,46.3,22.7,24.44,SSE,166,3.0,4.0,39,0.00,,---,0.00,VWS V14.01,2013-11-02 11:32:00,
2013-11-02 06:37:00,46.1,22.5,24.44,SSE,166,3.0,4.0,39,0.00,,---,0.00,VWS V14.01,2013-11-02 11:37:00,
2013-11-02 06:42:00,45.9,22.4,24.45,SSE,166,4.0,5.0,39,0.00,,---,0.00,VWS V14.01,2013-11-02 11:42:00,
2013-11-02 06:47:00,45.6,22.7,24.45,SSE,166,4.0,4.0,40,0.00,,---,0.00,VWS V14.01,2013-11-02 11:47:00,
2013-11-02 06:52:00,45.3,22.4,24.45,SSW,203,7.0,8.0,40,0.00,,---,0.00,VWS V14.01,2013-11-02 11:52:00,
2013-11-02 06:57:00,44.8,22.5,24.45,SSW,211,5.0,6.0,41,0.00,,---,0.00,VWS V14.01,2013-11-02 11:57:00,
2013-11-02 07:02:00,44.2,22.6,24.45,SSW,206,6.0,7.0,42,0.00,,---,0.00,VWS V14.01,2013-11-02 12:02:00,
2013-11-02 07:07:00,44.0,22.4,24.45,SSW,211,5.0,7.0,42,0.00,,---,0.00,VWS V14.01,2013-11-02 12:07:00,
2013-11-02 07:12:00,43.7,22.1,24.46,SW,225,4.0,7.0,42,0.00,,---,0.00,VWS V14.01,2013-11-02 12:12:00,
2013-11-02 07:17:00,43.6,23.7,24.46,SSW,213,6.0,7.0,45,0.00,,---,0.00,VWS V14.01,2013-11-02 12:17:00,
2013-11-02 07:22:00,43.4,24.5,24.46,SW,219,5.0,6.0,47,0.00,,---,0.00,VWS V14.01,2013-11-02 12:22:00,
2013-11-02 07:27:00,43.3,25.9,24.46,SSW,209,6.0,6.0,50,0.00,,---,0.00,VWS V14.01,2013-11-02 12:27:00,
2013-11-02 07:32:00,43.6,26.2,24.46,SSW,197,9.0,10.0,50,0.00,,---,0.00,VWS V14.01,2013-11-02 12:32:00,
2013-11-02 07:37:00,44.1,26.2,24.47,SSW,213,5.0,8.0,49,0.00,,---,0.00,VWS V14.01,2013-11-02 12:37:00,
2013-11-02 07:42:00,44.2,26.3,24.47,WSW,245,5.0,8.0,49,0.00,,---,0.00,VWS V14.01,2013-11-02 12:42:00,
2013-11-02 07:47:00,44.1,27.1,24.47,SW,225,4.0,7.0,51,0.00,,---,0.00,VWS V14.01,2013-11-02 12:47:00,
2013-11-02 07:52:00,43.7,27.2,24.47,SW,215,4.0,8.0,52,0.00,,---,0.00,VWS V14.01,2013-11-02 12:52:00,
2013-11-02 07:57:00,43.4,27.4,24.47,SW,223,3.0,8.0,53,0.00,,---,0.00,VWS V14.01,2013-11-02 12:57:00,
2013-11-02 08:02:00,43.4,27.4,24.47,SW,218,3.0,6.0,53,0.00,,---,0.00,VWS V14.01,2013-11-02 13:02:00,
2013-11-02 08:07:00,43.5,27.1,24.47,SW,235,5.0,7.0,52,0.00,,---,0.00,VWS V14.01,2013-11-02 13:07:00,
2013-11-02 08:12:00,43.8,26.4,24.48,SW,223,5.0,6.0,50,0.00,,---,0.00,VWS V14.01,2013-11-02 13:12:00,
2013-11-02 08:17:00,44.2,26.3,24.48,SW,223,5.0,6.0,49,0.00,,---,0.00,VWS V14.01,2013-11-02 13:17:00,
2013-11-02 08:22:00,44.6,26.1,24.48,SSW,204,4.0,6.0,48,0.00,,---,0.00,VWS V14.01,2013-11-02 13:22:00,
2013-11-02 08:27:00,44.9,26.4,24.49,SSW,202,5.0,9.0,48,0.00,,---,0.00,VWS V14.01,2013-11-02 13:27:00,
2013-11-02 08:32:00,45.2,26.7,24.49,SSW,205,4.0,5.0,48,0.00,,---,0.00,VWS V14.01,2013-11-02 13:32:00,
2013-11-02 08:37:00,45.4,26.9,24.49,SSW,202,3.0,5.0,48,0.00,,---,0.00,VWS V14.01,2013-11-02 13:37:00,
2013-11-02 08:42:00,45.4,27.4,24.49,SSW,202,1.0,2.0,49,0.00,,---,0.00,VWS V14.01,2013-11-02 13:42:00,
2013-11-02 08:47:00,45.5,27.5,24.50,SSW,212,2.0,5.0,49,0.00,,---,0.00,VWS V14.01,2013-11-02 13:47:00,
2013-11-02 08:52:00,45.7,27.6,24.50,SSW,211,0.0,2.0,49,0.00,,---,0.00,VWS V14.01,2013-11-02 13:52:00,
2013-11-02 08:57:00,46.1,27.5,24.50,SSW,211,0.0,0.0,48,0.00,,---,0.00,VWS V14.01,2013-11-02 13:57:00,
2013-11-02 09:02:00,46.5,27.9,24.50,SSW,208,4.0,5.0,48,0.00,,---,0.00,VWS V14.01,2013-11-02 14:02:00,
2013-11-02 09:07:00,46.9,27.7,24.50,South,186,6.0,7.0,47,0.00,,---,0.00,VWS V14.01,2013-11-02 14:07:00,
2013-11-02 09:12:00,47.3,27.6,24.50,South,170,3.0,4.0,46,0.00,,---,0.00,VWS V14.01,2013-11-02 14:12:00,
2013-11-02 09:17:00,47.9,28.1,24.51,South,187,5.0,6.0,46,0.00,,---,0.00,VWS V14.01,2013-11-02 14:17:00,
2013-11-02 09:22:00,48.3,26.9,24.51,SSW,192,5.0,6.0,43,0.00,,---,0.00,VWS V14.01,2013-11-02 14:22:00,
2013-11-02 09:27:00,48.6,27.1,24.51,SSW,195,9.0,10.0,43,0.00,,---,0.00,VWS V14.01,2013-11-02 14:27:00,
2013-11-02 09:32:00,48.8,27.3,24.51,South,181,7.0,7.0,43,0.00,,---,0.00,VWS V14.01,2013-11-02 14:32:00,
2013-11-02 09:37:00,48.7,27.2,24.51,South,177,7.0,11.0,43,0.00,,---,0.00,VWS V14.01,2013-11-02 14:37:00,
2013-11-02 09:42:00,49.0,26.9,24.52,SSE,157,6.0,9.0,42,0.00,,---,0.00,VWS V14.01,2013-11-02 14:42:00,
2013-11-02 09:47:00,49.4,27.3,24.52,SSE,147,5.0,11.0,42,0.00,,---,0.00,VWS V14.01,2013-11-02 14:47:00,
2013-11-02 09:52:00,49.8,27.1,24.52,South,178,8.0,8.0,41,0.00,,---,0.00,VWS V14.01,2013-11-02 14:52:00,
2013-11-02 09:57:00,50.1,26.7,24.52,SE,138,7.0,8.0,40,0.00,,---,0.00,VWS V14.01,2013-11-02 14:57:00,
2013-11-02 10:02:00,50.5,27.1,24.52,South,187,5.0,8.0,40,0.00,,---,0.00,VWS V14.01,2013-11-02 15:02:00,
2013-11-02 10:07:00,51.0,26.9,24.52,South,172,5.0,9.0,39,0.00,,---,0.00,VWS V14.01,2013-11-02 15:07:00,
2013-11-02 10:12:00,51.4,26.7,24.53,South,169,7.0,9.0,38,0.00,,---,0.00,VWS V14.01,2013-11-02 15:12:00,
2013-11-02 10:18:00,51.4,26.7,24.53,South,186,5.0,6.0,38,0.00,,---,0.00,VWS V14.01,2013-11-02 15:18:00,
2013-11-02 10:23:00,51.5,26.8,24.53,SSW,194,5.0,8.0,38,0.00,,---,0.00,VWS V14.01,2013-11-02 15:23:00,
2013-11-02 10:28:00,51.7,26.3,24.52,ESE,114,6.0,8.0,37,0.00,,---,0.00,VWS V14.01,2013-11-02 15:28:00,
2013-11-02 10:33:00,52.2,25.4,24.52,SSE,149,5.0,10.0,35,0.00,,---,0.00,VWS V14.01,2013-11-02 15:33:00,
2013-11-02 10:38:00,52.5,25.7,24.52,SSE,155,6.0,10.0,35,0.00,,---,0.00,VWS V14.01,2013-11-02 15:38:00,
2013-11-02 10:43:00,52.4,26.2,24.52,SE,141,4.0,7.0,36,0.00,,---,0.00,VWS V14.01,2013-11-02 15:43:00,
2013-11-02 10:48:00,52.8,26.6,24.52,SE,124,7.0,9.0,36,0.00,,---,0.00,VWS V14.01,2013-11-02 15:48:00,
2013-11-02 10:53:00,53.3,25.7,24.52,East,100,6.0,10.0,34,0.00,,---,0.00,VWS V14.01,2013-11-02 15:53:00,
2013-11-02 10:58:00,53.5,25.1,24.52,SE,146,7.0,8.0,33,0.00,,---,0.00,VWS V14.01,2013-11-02 15:58:00,
2013-11-02 11:03:00,53.6,24.5,24.52,SE,140,5.0,10.0,32,0.00,,---,0.00,VWS V14.01,2013-11-02 16:03:00,
2013-11-02 11:08:00,53.5,25.1,24.52,South,175,2.0,7.0,33,0.00,,---,0.00,VWS V14.01,2013-11-02 16:08:00,
2013-11-02 11:13:00,54.5,25.3,24.52,SE,127,11.0,13.0,32,0.00,,---,0.00,VWS V14.01,2013-11-02 16:13:00,
2013-11-02 11:18:00,54.4,25.2,24.52,SE,128,6.0,12.0,32,0.00,,---,0.00,VWS V14.01,2013-11-02 16:18:00,
2013-11-02 11:23:00,54.2,24.2,24.52,SSE,154,1.0,5.0,31,0.00,,---,0.00,VWS V14.01,2013-11-02 16:23:00,
2013-11-02 11:28:00,54.7,24.7,24.52,ESE,111,7.0,9.0,31,0.00,,---,0.00,VWS V14.01,2013-11-02 16:28:00,
2013-11-02 11:33:00,54.8,24.8,24.52,SSE,149,7.0,7.0,31,0.00,,---,0.00,VWS V14.01,2013-11-02 16:33:00,
2013-11-02 11:38:00,54.6,24.6,24.52,ESE,121,12.0,12.0,31,0.00,,---,0.00,VWS V14.01,2013-11-02 16:38:00,
2013-11-02 11:43:00,54.8,24.0,24.52,SSE,163,4.0,10.0,30,0.00,,---,0.00,VWS V14.01,2013-11-02 16:43:00,
2013-11-02 11:48:00,55.1,25.0,24.51,South,178,7.0,8.0,31,0.00,,---,0.00,VWS V14.01,2013-11-02 16:48:00,
2013-11-02 11:53:00,56.3,23.6,24.51,SE,133,11.0,12.0,28,0.00,,---,0.00,VWS V14.01,2013-11-02 16:53:00,
2013-11-02 11:58:00,55.9,24.9,24.51,SE,146,8.0,10.0,30,0.00,,---,0.00,VWS V14.01,2013-11-02 16:58:00,
2013-11-02 12:03:00,56.2,25.2,24.51,SE,139,4.0,8.0,30,0.00,,---,0.00,VWS V14.01,2013-11-02 17:03:00,
2013-11-02 12:08:00,57.1,24.3,24.51,ENE,78,4.0,10.0,28,0.00,,---,0.00,VWS V14.01,2013-11-02 17:08:00,
2013-11-02 12:13:00,57.1,24.3,24.51,SE,144,10.0,11.0,28,0.00,,---,0.00,VWS V14.01,2013-11-02 17:13:00,
2013-11-02 12:18:00,56.8,25.7,24.50,East,99,6.0,8.0,30,0.00,,---,0.00,VWS V14.01,2013-11-02 17:18:00,
2013-11-02 12:23:00,58.4,26.3,24.50,East,101,7.0,7.0,29,0.00,,---,0.00,VWS V14.01,2013-11-02 17:23:00,
2013-11-02 12:28:00,57.9,25.0,24.50,ESE,111,9.0,15.0,28,0.00,,---,0.00,VWS V14.01,2013-11-02 17:28:00,
2013-11-02 12:33:00,58.0,26.0,24.50,SE,124,7.0,14.0,29,0.00,,---,0.00,VWS V14.01,2013-11-02 17:33:00,
2013-11-02 12:38:00,57.7,24.8,24.50,SSW,206,3.0,8.0,28,0.00,,---,0.00,VWS V14.01,2013-11-02 17:38:00,
2013-11-02 12:43:00,58.0,22.4,24.49,SE,130,8.0,12.0,25,0.00,,---,0.00,VWS V14.01,2013-11-02 17:43:00,
2013-11-02 12:48:00,58.5,21.9,24.50,SE,144,7.0,13.0,24,0.00,,---,0.00,VWS V14.01,2013-11-02 17:48:00,
2013-11-02 12:53:00,58.7,21.0,24.49,ESE,118,9.0,12.0,23,0.00,,---,0.00,VWS V14.01,2013-11-02 17:53:00,
2013-11-02 12:58:00,58.2,20.6,24.49,SE,127,11.0,13.0,23,0.00,,---,0.00,VWS V14.01,2013-11-02 17:58:00,
2013-11-02 13:03:00,58.6,20.9,24.49,ESE,121,11.0,14.0,23,0.00,,---,0.00,VWS V14.01,2013-11-02 18:03:00,
2013-11-02 13:08:00,59.3,20.5,24.49,ESE,112,16.0,20.0,22,0.00,,---,0.00,VWS V14.01,2013-11-02 18:08:00,
2013-11-02 13:13:00,59.1,20.3,24.49,SE,145,7.0,10.0,22,0.00,,---,0.00,VWS V14.01,2013-11-02 18:13:00,
2013-11-02 13:18:00,58.9,20.1,24.48,SSW,197,11.0,12.0,22,0.00,,---,0.00,VWS V14.01,2013-11-02 18:18:00,
2013-11-02 13:23:00,59.8,19.8,24.48,ESE,116,12.0,20.0,21,0.00,,---,0.00,VWS V14.01,2013-11-02 18:23:00,
2013-11-02 13:28:00,58.8,20.1,24.47,SSE,157,11.0,16.0,22,0.00,,---,0.00,VWS V14.01,2013-11-02 18:28:00,
2013-11-02 13:33:00,58.6,19.9,24.48,South,174,6.0,11.0,22,0.00,,---,0.00,VWS V14.01,2013-11-02 18:33:00,
2013-11-02 13:38:00,59.8,20.9,24.47,ESE,122,9.0,11.0,22,0.00,,---,0.00,VWS V14.01,2013-11-02 18:38:00,
2013-11-02 13:43:00,60.3,21.3,24.47,WSW,250,6.0,10.0,22,0.00,,---,0.00,VWS V14.01,2013-11-02 18:43:00,
2013-11-02 13:48:00,59.8,19.8,24.47,SSE,149,6.0,12.0,21,0.00,,---,0.00,VWS V14.01,2013-11-02 18:48:00,
2013-11-02 13:53:00,59.4,19.5,24.46,SE,125,10.0,16.0,21,0.00,,---,0.00,VWS V14.01,2013-11-02 18:53:00,
2013-11-02 13:58:00,58.5,20.9,24.46,ESE,112,14.0,17.0,23,0.00,,---,0.00,VWS V14.01,2013-11-02 18:58:00,
2013-11-02 14:03:00,58.6,19.9,24.46,SE,134,13.0,20.0,22,0.00,,---,0.00,VWS V14.01,2013-11-02 19:03:00,
2013-11-02 14:08:00,58.9,21.2,24.45,SE,130,14.0,16.0,23,0.00,,---,0.00,VWS V14.01,2013-11-02 19:08:00,
2013-11-02 14:13:00,58.4,20.8,24.45,SSE,161,4.0,11.0,23,0.00,,---,0.00,VWS V14.01,2013-11-02 19:13:00,
2013-11-02 14:18:00,59.7,22.9,24.45,ESE,123,4.0,7.0,24,0.00,,---,0.00,VWS V14.01,2013-11-02 19:18:00,
2013-11-02 14:23:00,59.9,22.0,24.44,SSE,168,8.0,15.0,23,0.00,,---,0.00,VWS V14.01,2013-11-02 19:23:00,
2013-11-02 14:32:00,58.7,21.0,24.44,SSE,165,5.0,10.0,23,0.00,,---,0.00,VWS V14.01,2013-11-02 19:32:00,
2013-11-02 14:37:00,59.1,21.4,24.43,ESE,119,13.0,14.0,23,0.00,,---,0.00,VWS V14.01,2013-11-02 19:37:00,
2013-11-02 14:42:00,59.1,20.3,24.43,SE,132,4.0,4.0,22,0.00,,---,0.00,VWS V14.01,2013-11-02 19:42:00,
2013-11-02 14:47:00,59.4,20.6,24.43,SSW,192,7.0,11.0,22,0.00,,---,0.00,VWS V14.01,2013-11-02 19:47:00,
2013-11-02 14:52:00,59.7,20.8,24.42,South,174,15.0,17.0,22,0.00,,---,0.00,VWS V14.01,2013-11-02 19:52:00,
2013-11-02 14:58:00,59.8,20.9,24.42,SE,131,5.0,6.0,22,0.00,,---,0.00,VWS V14.01,2013-11-02 19:58:00,
2013-11-02 15:03:00,60.2,20.1,24.42,SSE,149,7.0,9.0,21,0.00,,---,0.00,VWS V14.01,2013-11-02 20:03:00,
2013-11-02 15:08:00,59.9,18.8,24.41,South,173,11.0,14.0,20,0.00,,---,0.00,VWS V14.01,2013-11-02 20:08:00,
2013-11-02 15:13:00,60.6,20.5,24.41,ESE,107,11.0,12.0,21,0.00,,---,0.00,VWS V14.01,2013-11-02 20:13:00,
2013-11-02 15:18:00,60.1,18.9,24.41,SE,133,8.0,9.0,20,0.00,,---,0.00,VWS V14.01,2013-11-02 20:18:00,
2013-11-02 15:23:00,60.4,16.7,24.41,ESE,112,6.0,8.0,18,0.00,,---,0.00,VWS V14.01,2013-11-02 20:23:00,
2013-11-02 15:28:00,60.7,18.2,24.41,ESE,121,6.0,14.0,19,0.00,,---,0.00,VWS V14.01,2013-11-02 20:28:00,
2013-11-02 15:33:00,60.6,15.6,24.40,SSE,160,11.0,13.0,17,0.00,,---,0.00,VWS V14.01,2013-11-02 20:33:00,
2013-11-02 15:38:00,60.2,15.2,24.40,SE,144,9.0,15.0,17,0.00,,---,0.00,VWS V14.01,2013-11-02 20:38:00,
2013-11-02 15:43:00,59.8,14.9,24.40,SSE,150,5.0,11.0,17,0.00,,---,0.00,VWS V14.01,2013-11-02 20:43:00,
2013-11-02 15:48:00,60.3,16.6,24.40,SE,135,7.0,7.0,18,0.00,,---,0.00,VWS V14.01,2013-11-02 20:48:00,
2013-11-02 15:53:00,61.1,18.5,24.39,ESE,121,9.0,11.0,19,0.00,,---,0.00,VWS V14.01,2013-11-02 20:53:00,
2013-11-02 15:58:00,60.6,18.1,24.39,South,171,7.0,9.0,19,0.00,,---,0.00,VWS V14.01,2013-11-02 20:58:00,
2013-11-02 16:03:00,60.7,17.0,24.39,SSE,149,16.0,17.0,18,0.00,,---,0.00,VWS V14.01,2013-11-02 21:03:00,
2013-11-02 16:08:00,60.4,15.4,24.39,South,177,12.0,12.0,17,0.00,,---,0.00,VWS V14.01,2013-11-02 21:08:00,
2013-11-02 16:13:00,60.7,17.0,24.39,South,170,4.0,11.0,18,0.00,,---,0.00,VWS V14.01,2013-11-02 21:13:00,
2013-11-02 16:18:00,61.0,11.5,24.39,ESE,116,6.0,6.0,14,0.00,,---,0.00,VWS V14.01,2013-11-02 21:18:00,
2013-11-02 16:23:00,61.0,15.9,24.39,SE,140,9.0,9.0,17,0.00,,---,0.00,VWS V14.01,2013-11-02 21:23:00,
2013-11-02 16:28:00,60.7,17.0,24.38,SE,125,6.0,8.0,18,0.00,,---,0.00,VWS V14.01,2013-11-02 21:28:00,
2013-11-02 16:33:00,61.0,15.9,24.38,SE,128,7.0,8.0,17,0.00,,---,0.00,VWS V14.01,2013-11-02 21:33:00,
2013-11-02 16:38:00,60.9,15.8,24.38,ESE,102,12.0,14.0,17,0.00,,---,0.00,VWS V14.01,2013-11-02 21:38:00,
2013-11-02 16:43:00,60.8,17.0,24.38,SE,145,11.0,14.0,18,0.00,,---,0.00,VWS V14.01,2013-11-02 21:43:00,
2013-11-02 16:48:00,60.6,16.9,24.38,SSE,167,7.0,9.0,18,0.00,,---,0.00,VWS V14.01,2013-11-02 21:48:00,
2013-11-02 16:53:00,60.5,16.8,24.38,SSE,159,9.0,11.0,18,0.00,,---,0.00,VWS V14.01,2013-11-02 21:53:00,
2013-11-02 16:58:00,60.5,16.8,24.38,SE,140,5.0,7.0,18,0.00,,---,0.00,VWS V14.01,2013-11-02 21:58:00,
2013-11-02 17:03:00,60.5,15.5,24.37,SE,126,6.0,7.0,17,0.00,,---,0.00,VWS V14.01,2013-11-02 22:03:00,
2013-11-02 17:08:00,60.1,15.2,24.37,SE,133,12.0,14.0,17,0.00,,---,0.00,VWS V14.01,2013-11-02 22:08:00,
2013-11-02 17:13:00,60.4,16.7,24.37,SE,145,10.0,10.0,18,0.00,,---,0.00,VWS V14.01,2013-11-02 22:13:00,
2013-11-02 17:18:00,60.4,15.4,24.37,SE,144,6.0,9.0,17,0.00,,---,0.00,VWS V14.01,2013-11-02 22:18:00,
2013-11-02 17:23:00,60.5,15.5,24.37,SE,130,5.0,6.0,17,0.00,,---,0.00,VWS V14.01,2013-11-02 22:23:00,
2013-11-02 17:28:00,60.6,14.2,24.37,SE,130,8.0,8.0,16,0.00,,---,0.00,VWS V14.01,2013-11-02 22:28:00,
2013-11-02 17:33:00,60.2,15.2,24.37,ESE,121,8.0,8.0,17,0.00,,---,0.00,VWS V14.01,2013-11-02 22:33:00,
2013-11-02 17:38:00,60.1,15.2,24.37,South,178,6.0,9.0,17,0.00,,---,0.00,VWS V14.01,2013-11-02 22:38:00,
2013-11-02 17:43:00,59.6,13.4,24.36,South,171,7.0,7.0,16,0.00,,---,0.00,VWS V14.01,2013-11-02 22:43:00,
2013-11-02 17:48:00,59.8,13.5,24.37,SE,125,8.0,8.0,16,0.00,,---,0.00,VWS V14.01,2013-11-02 22:48:00,
2013-11-02 17:53:00,59.8,14.9,24.37,SE,139,9.0,11.0,17,0.00,,---,0.00,VWS V14.01,2013-11-02 22:53:00,
2013-11-02 17:58:00,59.6,14.8,24.37,SSE,149,7.0,8.0,17,0.00,,---,0.00,VWS V14.01,2013-11-02 22:58:00,
2013-11-02 18:03:00,59.4,14.6,24.37,SSE,152,4.0,7.0,17,0.00,,---,0.00,VWS V14.01,2013-11-02 23:03:00,
2013-11-02 18:08:00,59.3,13.1,24.37,SSE,157,7.0,13.0,16,0.00,,---,0.00,VWS V14.01,2013-11-02 23:08:00,
2013-11-02 18:13:00,59.1,13.0,24.37,SE,140,6.0,9.0,16,0.00,,---,0.00,VWS V14.01,2013-11-02 23:13:00,
2013-11-02 18:18:00,58.9,12.8,24.37,SSE,162,4.0,6.0,16,0.00,,---,0.00,VWS V14.01,2013-11-02 23:18:00,
2013-11-02 18:23:00,58.7,14.0,24.37,SSE,163,9.0,11.0,17,0.00,,---,0.00,VWS V14.01,2013-11-02 23:23:00,
2013-11-02 18:28:00,58.4,13.8,24.37,SE,130,9.0,12.0,17,0.00,,---,0.00,VWS V14.01,2013-11-02 23:28:00,
2013-11-02 18:33:00,58.2,13.6,24.36,SSE,160,5.0,11.0,17,0.00,,---,0.00,VWS V14.01,2013-11-02 23:33:00,
2013-11-02 18:39:00,57.9,14.7,24.37,South,171,7.0,10.0,18,0.00,,---,0.00,VWS V14.01,2013-11-02 23:39:00,
2013-11-02 18:43:00,57.6,14.4,24.37,SSE,168,3.0,6.0,18,0.00,,---,0.00,VWS V14.01,2013-11-02 23:43:00,
2013-11-02 18:49:00,57.3,16.6,24.36,SSE,167,5.0,13.0,20,0.00,,---,0.00,VWS V14.01,2013-11-02 23:49:00,
2013-11-02 18:54:00,56.9,17.4,24.36,SSE,156,8.0,10.0,21,0.00,,---,0.00,VWS V14.01,2013-11-02 23:54:00,
2013-11-02 18:59:00,56.5,17.1,24.36,ESE,113,5.0,8.0,21,0.00,,---,0.00,VWS V14.01,2013-11-02 23:59:00,
2013-11-02 19:04:00,56.0,17.7,24.36,SSE,147,11.0,12.0,22,0.00,,---,0.00,VWS V14.01,2013-11-03 00:04:00,
2013-11-02 19:09:00,55.7,18.5,24.36,SSE,168,10.0,16.0,23,0.00,,---,0.00,VWS V14.01,2013-11-03 00:09:00,
2013-11-02 19:14:00,55.5,20.3,24.36,SSE,152,11.0,16.0,25,0.00,,---,0.00,VWS V14.01,2013-11-03 00:14:00,
2013-11-02 19:19:00,55.2,20.9,24.36,SSE,149,8.0,12.0,26,0.00,,---,0.00,VWS V14.01,2013-11-03 00:19:00,
2013-11-02 19:24:00,54.8,21.5,24.36,SSE,152,10.0,12.0,27,0.00,,---,0.00,VWS V14.01,2013-11-03 00:24:00,
2013-11-02 19:29:00,54.5,21.2,24.36,SSE,161,10.0,13.0,27,0.00,,---,0.00,VWS V14.01,2013-11-03 00:29:00,
2013-11-02 19:34:00,54.2,21.8,24.36,SE,142,9.0,13.0,28,0.00,,---,0.00,VWS V14.01,2013-11-03 00:34:00,
2013-11-02 19:39:00,54.1,21.7,24.36,SE,143,7.0,13.0,28,0.00,,---,0.00,VWS V14.01,2013-11-03 00:39:00,
2013-11-02 19:44:00,54.0,22.5,24.36,SE,140,8.0,13.0,29,0.00,,---,0.00,VWS V14.01,2013-11-03 00:44:00,
2013-11-02 19:49:00,53.9,22.4,24.36,SSE,157,7.0,12.0,29,0.00,,---,0.00,VWS V14.01,2013-11-03 00:49:00,
2013-11-02 19:54:00,53.8,23.1,24.36,SSE,157,12.0,14.0,30,0.00,,---,0.00,VWS V14.01,2013-11-03 00:54:00,
2013-11-02 19:59:00,53.6,23.7,24.37,ESE,116,3.0,10.0,31,0.00,,---,0.00,VWS V14.01,2013-11-03 00:59:00,
2013-11-02 20:04:00,53.3,24.2,24.37,SSE,166,7.0,9.0,32,0.00,,---,0.00,VWS V14.01,2013-11-03 01:04:00,
2013-11-02 20:09:00,53.0,24.0,24.37,SSE,156,8.0,15.0,32,0.00,,---,0.00,VWS V14.01,2013-11-03 01:09:00,
2013-11-02 20:14:00,52.7,24.4,24.37,SE,125,8.0,8.0,33,0.00,,---,0.00,VWS V14.01,2013-11-03 01:14:00,
2013-11-02 20:19:00,52.6,24.3,24.36,SE,142,10.0,13.0,33,0.00,,---,0.00,VWS V14.01,2013-11-03 01:19:00,
2013-11-02 20:24:00,52.3,24.8,24.36,SE,135,12.0,12.0,34,0.00,,---,0.00,VWS V14.01,2013-11-03 01:24:00,
2013-11-02 20:29:00,52.1,24.6,24.37,SSE,150,12.0,17.0,34,0.00,,---,0.00,VWS V14.01,2013-11-03 01:29:00,
2013-11-02 20:34:00,51.8,24.3,24.37,SSE,159,8.0,14.0,34,0.00,,---,0.00,VWS V14.01,2013-11-03 01:34:00,
2013-11-02 20:39:00,51.7,25.0,24.37,SSE,150,8.0,13.0,35,0.00,,---,0.00,VWS V14.01,2013-11-03 01:39:00,
2013-11-02 20:44:00,51.3,24.6,24.37,SE,138,8.0,12.0,35,0.00,,---,0.00,VWS V14.01,2013-11-03 01:44:00,
2013-11-02 20:49:00,51.1,25.1,24.37,SE,145,6.0,9.0,36,0.00,,---,0.00,VWS V14.01,2013-11-03 01:49:00,
2013-11-02 20:54:00,50.9,24.9,24.37,SSE,157,5.0,8.0,36,0.00,,---,0.00,VWS V14.01,2013-11-03 01:54:00,
2013-11-02 20:59:00,50.7,24.7,24.38,SSE,152,8.0,11.0,36,0.00,,---,0.00,VWS V14.01,2013-11-03 01:59:00,
2013-11-02 21:04:00,50.5,25.2,24.37,SE,144,5.0,11.0,37,0.00,,---,0.00,VWS V14.01,2013-11-03 02:04:00,
2013-11-02 21:09:00,50.2,25.0,24.37,SSE,158,10.0,10.0,37,0.00,,---,0.00,VWS V14.01,2013-11-03 02:09:00,
2013-11-02 21:14:00,50.3,25.7,24.37,SSE,155,7.0,9.0,38,0.00,,---,0.00,VWS V14.01,2013-11-03 02:14:00,
2013-11-02 21:19:00,50.1,25.5,24.37,SSE,164,3.0,5.0,38,0.00,,---,0.00,VWS V14.01,2013-11-03 02:19:00,
2013-11-02 21:24:00,49.9,25.3,24.37,SE,146,0.0,7.0,38,0.00,,---,0.00,VWS V14.01,2013-11-03 02:24:00,
2013-11-02 21:29:00,49.8,25.9,24.37,SSE,159,5.0,6.0,39,0.00,,---,0.00,VWS V14.01,2013-11-03 02:29:00,
2013-11-02 21:34:00,49.8,25.9,24.37,South,173,5.0,7.0,39,0.00,,---,0.00,VWS V14.01,2013-11-03 02:34:00,
2013-11-02 21:39:00,49.9,26.6,24.36,SE,145,5.0,10.0,40,0.00,,---,0.00,VWS V14.01,2013-11-03 02:39:00,
2013-11-02 21:44:00,49.8,26.5,24.36,SSE,153,2.0,7.0,40,0.00,,---,0.00,VWS V14.01,2013-11-03 02:44:00,
2013-11-02 21:49:00,49.5,26.2,24.37,SSE,151,5.0,8.0,40,0.00,,---,0.00,VWS V14.01,2013-11-03 02:49:00,
2013-11-02 21:54:00,49.4,26.7,24.37,South,186,7.0,9.0,41,0.00,,---,0.00,VWS V14.01,2013-11-03 02:54:00,
2013-11-02 21:59:00,49.2,26.5,24.37,SSE,157,8.0,8.0,41,0.00,,---,0.00,VWS V14.01,2013-11-03 02:59:00,
2013-11-02 22:04:00,49.1,26.4,24.36,South,173,5.0,9.0,41,0.00,,---,0.00,VWS V14.01,2013-11-03 03:04:00,
2013-11-02 22:09:00,49.1,26.4,24.36,South,180,3.0,8.0,41,0.00,,---,0.00,VWS V14.01,2013-11-03 03:09:00,
2013-11-02 22:14:00,49.0,26.9,24.36,SSE,161,5.0,7.0,42,0.00,,---,0.00,VWS V14.01,2013-11-03 03:14:00,
2013-11-02 22:19:00,48.9,26.8,24.36,SSW,199,5.0,7.0,42,0.00,,---,0.00,VWS V14.01,2013-11-03 03:19:00,
2013-11-02 22:24:00,48.9,26.8,24.36,South,187,4.0,6.0,42,0.00,,---,0.00,VWS V14.01,2013-11-03 03:24:00,
2013-11-02 22:29:00,48.9,26.8,24.36,South,176,7.0,8.0,42,0.00,,---,0.00,VWS V14.01,2013-11-03 03:29:00,
2013-11-02 22:34:00,48.9,26.8,24.36,South,181,6.0,7.0,42,0.00,,---,0.00,VWS V14.01,2013-11-03 03:34:00,
2013-11-02 22:39:00,48.8,26.7,24.36,South,187,6.0,7.0,42,0.00,,---,0.00,VWS V14.01,2013-11-03 03:39:00,
2013-11-02 22:44:00,48.6,27.1,24.36,South,177,5.0,7.0,43,0.00,,---,0.00,VWS V14.01,2013-11-03 03:44:00,
2013-11-02 22:49:00,48.8,27.3,24.36,SSE,157,8.0,9.0,43,0.00,,---,0.00,VWS V14.01,2013-11-03 03:49:00,
2013-11-02 22:54:00,48.8,27.3,24.36,South,179,5.0,6.0,43,0.00,,---,0.00,VWS V14.01,2013-11-03 03:54:00,
2013-11-02 22:59:00,48.8,27.3,24.36,South,183,8.0,8.0,43,0.00,,---,0.00,VWS V14.01,2013-11-03 03:59:00,
2013-11-02 23:01:00,48.8,27.3,24.36,South,186,6.0,9.0,43,0.00,,---,0.00,VWS V14.01,2013-11-03 04:01:00,
2013-11-02 23:04:00,48.7,27.2,24.35,South,182,5.0,7.0,43,0.00,,---,0.00,VWS V14.01,2013-11-03 04:04:00,
2013-11-02 23:09:00,48.6,27.1,24.35,SSW,193,6.0,7.0,43,0.00,,---,0.00,VWS V14.01,2013-11-03 04:09:00,
2013-11-02 23:14:00,48.3,27.4,24.35,SSW,197,8.0,8.0,44,0.00,,---,0.00,VWS V14.01,2013-11-03 04:14:00,
2013-11-02 23:19:00,48.3,27.4,24.35,SSW,192,6.0,7.0,44,0.00,,---,0.00,VWS V14.01,2013-11-03 04:19:00,
2013-11-02 23:24:00,48.4,27.5,24.35,SSW,199,6.0,10.0,44,0.00,,---,0.00,VWS V14.01,2013-11-03 04:24:00,
2013-11-02 23:29:00,48.7,27.8,24.35,SSW,202,6.0,8.0,44,0.00,,---,0.00,VWS V14.01,2013-11-03 04:29:00,
2013-11-02 23:34:00,48.7,27.8,24.35,South,183,9.0,12.0,44,0.00,,---,0.00,VWS V14.01,2013-11-03 04:34:00,
2013-11-02 23:39:00,48.7,27.8,24.35,South,185,7.0,11.0,44,0.00,,---,0.00,VWS V14.01,2013-11-03 04:39:00,
2013-11-02 23:44:00,48.6,27.7,24.34,South,190,8.0,10.0,44,0.00,,---,0.00,VWS V14.01,2013-11-03 04:44:00,
2013-11-02 23:49:00,48.6,27.7,24.35,SSW,199,9.0,9.0,44,0.00,,---,0.00,VWS V14.01,2013-11-03 04:49:00,
2013-11-02 23:54:00,48.7,27.8,24.35,SSW,202,7.0,11.0,44,0.00,,---,0.00,VWS V14.01,2013-11-03 04:54:00,
2013-11-02 23:59:00,48.6,27.7,24.34,SSW,195,7.0,11.0,44,0.00,,---,0.00,VWS V14.01,2013-11-03 04:59:00,